DK8PN Weather Reports


time (UTC)temp
C
wind
direction
speed
KPH
gust
KPH
rain 1hr
cm
rain 24hr
cm
rain mn
cm
humidity
%
barometer
mb
20260903201544 22 268 0.0 3.2 0.00 0.00 0.00 56 1018.7
20260903200044 22 268 0.0 0.0 0.00 0.00 0.00 58 1018.6
20260903194543 22 268 0.0 0.0 0.00 0.00 0.00 59 1018.9
20260903193043 20 268 0.0 0.0 0.00 0.00 0.00 67 1019.0
20260903191544 21 268 0.0 0.0 0.00 0.00 0.00 60 1018.9
20260903190041 21 268 0.0 0.0 0.00 0.00 0.00 61 1018.7
20260903184544 21 268 0.0 0.0 0.00 0.00 0.00 59 1018.6
20260903183040 22 268 0.0 0.0 0.00 0.00 0.00 58 1018.3
20260903181540 22 268 0.0 0.0 0.00 0.00 0.00 55 1018.2
20260903180039 23 268 0.0 0.0 0.00 0.00 0.00 53 1018.1
20260903174534 23 268 0.0 4.8 0.00 0.00 0.00 51 1018.0
20260903173034 23 268 0.0 0.0 0.00 0.00 0.00 51 1018.3
20260903171542 24 268 0.0 4.8 0.00 0.00 0.00 50 1018.3
20260903170039 24 263 0.0 4.8 0.00 0.00 0.00 49 1018.1
20260903164533 24 278 0.0 6.4 0.00 0.00 0.00 48 1018.1
20260903163035 24 271 1.6 9.7 0.00 0.00 0.00 47 1018.1
20260903161531 25 275 1.6 17.7 0.00 0.00 0.00 47 1018.1
20260903160036 25 274 1.6 16.1 0.00 0.00 0.00 46 1018.2
20260903154629 25 246 0.0 30.6 0.00 0.00 0.00 46 1018.2
20260903153027 25 265 0.0 17.7 0.00 0.00 0.00 46 1018.4
20260903151529 25 246 6.4 19.3 0.00 0.00 0.00 45 1018.4
20260903150026 25 227 4.8 22.5 0.00 0.00 0.00 47 1018.4
20260903144524 25 276 11.3 25.7 0.00 0.00 0.00 47 1018.5
20260903143024 25 281 9.7 19.3 0.00 0.00 0.00 47 1018.6
20260903141523 25 316 6.4 22.5 0.00 0.00 0.00 47 1018.4
20260903140021 25 300 8.0 24.1 0.00 0.00 0.00 46 1018.5
20260903134520 25 294 3.2 14.5 0.00 0.00 0.00 47 1018.7
20260903133017 25 259 1.6 20.9 0.00 0.00 0.00 47 1018.8
20260903131617 25 299 4.8 16.1 0.00 0.00 0.00 46 1018.8
20260903130017 25 298 4.8 19.3 0.00 0.00 0.00 47 1018.8
20260903124513 25 273 0.0 6.4 0.00 0.00 0.00 46 1018.9
20260903123012 24 302 4.8 17.7 0.00 0.00 0.00 49 1018.9
20260903121522 24 255 3.2 11.3 0.00 0.00 0.00 50 1019.2
20260903120010 23 267 3.2 12.9 0.00 0.00 0.00 50 1019.1
20260903114508 23 241 0.0 8.0 0.00 0.00 0.00 51 1019.0
20260903113008 24 302 3.2 14.5 0.00 0.00 0.00 50 1019.2
20260903111502 23 244 1.6 14.5 0.00 0.00 0.00 52 1019.4
20260903110000 23 257 6.4 19.3 0.00 0.00 0.00 53 1019.7
20260903104604 23 274 6.4 20.9 0.00 0.00 0.00 53 1019.7
20260903103100 22 293 6.4 14.5 0.00 0.00 0.00 53 1019.8
20260903101559 22 281 1.6 16.1 0.00 0.00 0.00 53 1020.1
20260903100059 23 275 3.2 12.9 0.00 0.00 0.00 51 1020.1
20260903094600 23 267 3.2 19.3 0.00 0.00 0.00 52 1020.3
20260903093058 23 264 1.6 11.3 0.00 0.00 0.00 52 1020.2
20260903091554 22 268 4.8 17.7 0.00 0.00 0.00 52 1020.3
20260903090052 22 273 1.6 12.9 0.00 0.00 0.00 54 1020.5
20260903084550 21 228 0.0 8.0 0.00 0.00 0.00 55 1020.3
20260903083049 22 281 0.0 0.0 0.00 0.00 0.00 58 1020.2
20260903081546 21 308 0.0 0.0 0.00 0.00 0.00 65 1020.2
20260903080044 19 288 0.0 0.0 0.00 0.00 0.00 70 1020.4
20260903074540 18 288 0.0 0.0 0.00 0.00 0.00 74 1020.4
20260903073047 17 288 0.0 0.0 0.00 0.00 0.00 74 1020.4
20260903071537 17 288 0.0 0.0 0.00 0.00 0.00 77 1020.5
20260903070036 17 288 0.0 0.0 0.00 0.00 0.00 79 1020.5
20260903064531 15 288 0.0 0.0 0.00 0.00 0.00 84 1020.4
20260903063028 14 288 0.0 0.0 0.00 0.00 0.00 86 1020.3
20260903061536 13 288 0.0 0.0 0.00 0.00 0.00 89 1020.5
20260903060021 12 288 0.0 0.0 0.00 0.00 0.00 90 1020.3
20260903054520 11 288 0.0 0.0 0.00 0.00 0.00 91 1020.7
20260903053016 11 288 0.0 0.0 0.00 0.00 0.00 91 1020.6
20260903051511 11 288 0.0 0.0 0.00 0.00 0.00 91 1020.3
20260903050008 10 288 0.0 0.0 0.00 0.00 0.00 91 1020.0
20260903044506 10 288 0.0 0.0 0.00 0.00 0.00 91 1020.0
20260903043004 11 288 0.0 0.0 0.00 0.00 0.00 91 1019.8
20260903041504 11 288 0.0 0.0 0.00 0.00 0.00 91 1019.8
20260903040003 11 288 0.0 0.0 0.00 0.00 0.00 91 1019.9
20260903034502 11 288 0.0 0.0 0.00 0.00 0.00 91 1020.0
20260903033100 11 288 0.0 0.0 0.00 0.00 0.00 91 1020.1
20260903031603 11 288 0.0 0.0 0.00 0.00 0.00 91 1020.2
20260903030058 11 288 0.0 0.0 0.00 0.00 0.00 91 1020.0
20260903024557 11 288 0.0 0.0 0.00 0.00 0.00 91 1020.0
20260903023054 11 288 0.0 0.0 0.00 0.00 0.00 90 1020.0
20260903021552 12 288 0.0 0.0 0.00 0.00 0.00 90 1020.1
20260903020054 12 288 0.0 0.0 0.00 0.00 0.00 90 1020.0
20260903014610 12 288 0.0 0.0 0.00 0.00 0.00 90 1020.1
20260903013100 12 288 0.0 0.0 0.00 0.00 0.00 90 1020.0
20260903011611 12 288 0.0 0.0 0.00 0.00 0.00 90 1020.0
20260903010101 12 288 0.0 0.0 0.00 0.00 0.00 90 1020.0
20260903004543 12 288 0.0 0.0 0.00 0.00 0.00 89 1020.0
20260903003049 13 288 0.0 0.0 0.00 0.00 0.00 89 1019.8
20260903001552 13 288 0.0 0.0 0.00 0.00 0.00 89 1019.8
20260903000037 13 288 0.0 0.0 0.00 0.00 0.00 88 1019.8
20260902234535 13 288 0.0 0.0 0.00 0.00 0.00 88 1019.8
20260902233033 14 288 0.0 0.0 0.00 0.00 0.00 88 1019.8
20260902231542 14 288 0.0 0.0 0.00 0.00 0.00 87 1019.8
20260902230029 15 288 0.0 0.0 0.00 0.00 0.00 86 1019.7
20260902224526 15 288 0.0 0.0 0.00 0.00 0.00 85 1019.7
20260902223035 15 288 0.0 0.0 0.00 0.00 0.00 85 1019.6
20260902221528 16 288 0.0 0.0 0.00 0.00 0.00 84 1019.6
20260902220025 16 288 0.0 0.0 0.00 0.00 0.00 84 1019.5
20260902214522 16 288 0.0 0.0 0.00 0.00 0.00 84 1019.5
20260902213019 16 288 0.0 0.0 0.00 0.00 0.00 83 1019.5
20260902211518 16 288 0.0 0.0 0.00 0.00 0.00 83 1019.4
20260902210017 16 288 0.0 0.0 0.00 0.00 0.00 82 1019.4
20260902204516 16 288 0.0 0.0 0.00 0.00 0.00 82 1019.4